180P/NEAT (2000)

Japanese version
Home page
Total 6,336 html files since Dec. 4, 1995
Updated on October 29, 2006

---------------------------------------------------------------------

* Profile

Designation 180P/2001 K1
Discovery Date May 20, 2001
Magnitude 18.7 mag
Discoverer Near-Earth-Asteroid Tracking Team (Jet Propulsion Laboratory)

* Orbital Elements

                    Epoch = 2000 Oct. 23.0 TT
     T = 2000 Nov.  6.8998 TT         Peri. =  94.6503
     e = 0.357232                     Node  =  84.8386  2000.0
     q = 2.470580 AU                  Incl. =  16.9125
       a =  3.843656 AU    n = 0.1307938    P =   7.536 years

* Finding Charts

* Magnitudes Graph

        m1 = 7.5 + 5 log d + 20.0 log r

---------------------------------------------------------------------

The orbital elements are calculated by Dr. Brian G. Marsden and printed on IAUC 8765.
The charts are made with StellaNavigator Ver.2.0 for Windows (AstroArts / ASCII).
The magnitudes graphs are made with Comet for Windows.

---------------------------------------------------------------------

Copyright(C) 1995-2008 Seiichi Yoshida (comet@aerith.net). All rights reserved.